Home > Weather > Brussels > Past weeks

Flag for Belgium Past Weather in Brussels, Belgium — Yesterday and Last 2 Weeks

Now
55 °F

Partly sunny.


Feels Like: 53 °F
Forecast: 55 / 65 °F
Wind: 8 mph from Southwest

Location: Brussels National Airport

Current Time: Jun 26, 2016 at 8:37:52 AM

Latest Report: Jun 26, 2016 at 7:50 AM


Visibility: N/A

Pressure: 30.04 "Hg

Humidity: 82%

Dew Point: 50 °F

Location of BrusselsLocation

Past Weather in Brussels — Graph

°F

Brussels Temperature Yesterday

Maximum temperature yesterday: 63 °F (at 3:20 PM)
Minimum temperature yesterday: 52 °F (at 11:20 PM)
Average temperature yesterday: 59 °F

High & Low Weather Summary for the Past Weeks

 TemperatureHumidityPressure
High86 °F (Jun 23, 5:20 PM)100% (Jun 22, 4:20 AM)30.30 "Hg (Jun 22, 4:20 AM)
Low48 °F (Jun 16, 3:50 AM)47% (Jun 11, 5:50 PM)29.47 "Hg (Jun 14, 5:20 PM)
Average61 °F82%29.89 "Hg
* Reported Jun 11 7:20 AM — Jun 26 7:20 AM, Brussels, Weather by CustomWeather, © 2016

Note: Actual official high and low records may vary slightly from our data, if they occured in-between our weather recording intervals... More about our weather records

Advertising

Brussels Weather History for the Previous 24 Hours

Scroll right to see more
 ConditionsComfort  
Time TempWeatherWind HumidityBarometerVisibility
7:20 AM
Sun, Jun 26
55 °FPartly sunny.10 mph82%30.04 "HgN/A
6:50 AM55 °FPartly sunny.7 mph82%30.04 "HgN/A
6:20 AM55 °FPassing clouds.7 mph82%30.04 "HgN/A
5:50 AM54 °FPassing clouds.7 mph82%30.01 "HgN/A
5:20 AM55 °FPassing clouds.8 mph82%30.04 "HgN/A
4:50 AM54 °FPassing clouds.7 mph88%30.04 "HgN/A
4:20 AM52 °FPassing clouds.6 mph88%30.04 "HgN/A
3:50 AM52 °FPassing clouds.7 mph88%30.04 "HgN/A
3:20 AM52 °FPassing clouds.7 mph88%30.04 "HgN/A
2:50 AM52 °FPassing clouds.6 mph88%30.04 "HgN/A
2:20 AM52 °FPassing clouds.7 mph82%30.04 "HgN/A
1:50 AM52 °FPassing clouds.6 mph88%30.04 "HgN/A
1:20 AM52 °FPassing clouds.7 mph88%30.04 "HgN/A
12:50 AM52 °FPassing clouds.7 mph88%30.04 "HgN/A
12:20 AM52 °FPassing clouds.6 mph94%30.04 "HgN/A
11:50 PM
Sat, Jun 25
52 °FPassing clouds.5 mph94%30.04 "HgN/A
11:20 PM52 °FPassing clouds.3 mph94%30.04 "HgN/A
10:50 PM54 °FPassing clouds.2 mph88%30.04 "HgN/A
10:20 PM54 °FPassing clouds.1 mph94%30.04 "HgN/A
9:50 PM55 °FPassing clouds.1 mph88%30.04 "HgN/A
9:20 PM57 °FPassing clouds.6 mph77%30.04 "HgN/A
8:50 PM59 °FPassing clouds.7 mph77%30.04 "HgN/A
8:20 PM59 °FPassing clouds.8 mph77%30.04 "HgN/A
7:50 PM63 °FPassing clouds.1 mph83%30.01 "HgN/A
7:20 PM61 °FPassing clouds.1 mph83%30.01 "HgN/A
6:50 PM59 °FPassing clouds.9 mph88%30.01 "HgN/A
6:20 PM57 °FSprinkles. Scattered clouds.8 mph82%30.01 "HgN/A
5:50 PM63 °FSprinkles. Scattered clouds.6 mph77%30.01 "HgN/A
5:20 PM63 °FPartly sunny.3 mph73%30.01 "HgN/A
4:50 PM63 °FPartly sunny.5 mph77%30.01 "HgN/A
4:20 PM63 °FPassing clouds.2 mph73%30.01 "HgN/A
3:50 PM63 °FPartly sunny.1 mph68%30.04 "HgN/A
3:20 PM63 °FLight rain. Passing clouds.1 mph73%30.04 "HgN/A
2:50 PM61 °FLight rain. Passing clouds.3 mph77%30.01 "HgN/A
2:20 PM61 °FLight rain. Passing clouds.3 mph77%30.04 "HgN/A
1:50 PM61 °FLight rain. Passing clouds.7 mph77%30.04 "HgN/A
1:20 PM61 °FLight rain. Scattered clouds.7 mph83%30.04 "HgN/A
12:50 PM59 °FLight rain. Scattered clouds.9 mph82%30.04 "HgN/A
12:20 PM61 °FLight rain. Passing clouds.7 mph77%30.04 "HgN/A
11:50 AM61 °FPassing clouds.8 mph77%30.04 "HgN/A
11:20 AM61 °FPassing clouds.6 mph77%30.01 "HgN/A
10:50 AM61 °FScattered clouds.7 mph77%30.01 "HgN/A
10:20 AM61 °FPassing clouds.7 mph77%30.04 "HgN/A
9:50 AM59 °FPassing clouds.5 mph82%30.04 "HgN/A
9:20 AM59 °FPartly sunny.6 mph82%30.04 "HgN/A
8:50 AM59 °FPartly sunny.7 mph82%30.01 "HgN/A
8:20 AM59 °FPartly sunny.7 mph77%30.01 "HgN/A
Weather by CustomWeather, © 2016

See weather overviewHow to use our weather pages